When you browse on this site, cookies collect data to enhance your experience and personalize the content and advertising you see.
Visit our Privacy Policy to learn more. By continuing to use the site, you agree to this use of cookies and data.
  • Em Portugal
  • Lista de países
  • Para 7 dias
  • Temperatura da água
  • Mapas de satélite
  • Mapa do tempo
  • Widgets de tempo
  • user-avatar
    Iniciar Sessão

    Previsão horária em Annovka

    Hoje, 19 Junho, Quarta-feira

    Tempo Temperatura Precipitação Vento Pressão Humidade
    00:00 +15°C° 0 mm 2 m/s 750 mmHg 80%
    01:00 +15°C° 0 mm 2 m/s 750 mmHg 82%
    02:00 +15°C° 0 mm 2 m/s 750 mmHg 83%
    03:00 +15°C° 0 mm 2 m/s 750 mmHg 84%
    04:00 +15°C° 0 mm 2 m/s 750 mmHg 85%
    05:00 +15°C° 0 mm 2 m/s 750 mmHg 86%
    06:00 +17°C° 0 mm 2 m/s 751 mmHg 80%
    07:00 +19°C° 0 mm 2 m/s 751 mmHg 74%
    08:00 +22°C° 0 mm 1 m/s 751 mmHg 70%
    09:00 +23°C° 0 mm 2 m/s 751 mmHg 65%
    10:00 +24°C° 0 mm 2 m/s 751 mmHg 60%
    11:00 +26°C° 0 mm 2 m/s 751 mmHg 54%
    12:00 +26°C° 0 mm 2 m/s 750 mmHg 53%
    13:00 +27°C° 0 mm 2 m/s 750 mmHg 51%
    14:00 +27°C° 0 mm 2 m/s 750 mmHg 49%
    15:00 +27°C° 0 mm 2 m/s 750 mmHg 52%
    16:00 +27°C° 0 mm 2 m/s 749 mmHg 55%
    17:00 +26°C° 0 mm 2 m/s 749 mmHg 58%
    18:00 +25°C° 0 mm 2 m/s 749 mmHg 64%
    19:00 +23°C° 0 mm 2 m/s 749 mmHg 70%
    20:00 +21°C° 0 mm 2 m/s 749 mmHg 76%
    21:00 +20°C° 0 mm 2 m/s 749 mmHg 78%
    22:00 +19°C° 0 mm 2 m/s 749 mmHg 79%
    23:00 +18°C° 0 mm 2 m/s 749 mmHg 80%

    Amanhã, 20 Junho, Quinta-feira

    Tempo Temperatura Precipitação Vento Pressão Humidade
    00:00 +18°C° 0 mm 2 m/s 749 mmHg 81%
    01:00 +17°C° 0 mm 2 m/s 749 mmHg 82%
    02:00 +17°C° 0 mm 2 m/s 749 mmHg 84%
    03:00 +17°C° 0 mm 2 m/s 749 mmHg 85%
    04:00 +17°C° 0 mm 2 m/s 749 mmHg 85%
    05:00 +17°C° 0 mm 2 m/s 749 mmHg 86%
    06:00 +19°C° 0 mm 2 m/s 749 mmHg 82%
    07:00 +20°C° 0 mm 2 m/s 749 mmHg 78%
    08:00 +22°C° 0 mm 3 m/s 749 mmHg 74%
    09:00 +24°C° 0 mm 3 m/s 749 mmHg 70%
    10:00 +25°C° 0 mm 3 m/s 749 mmHg 67%
    11:00 +27°C° 0 mm 3 m/s 749 mmHg 63%
    12:00 +27°C° 0.1 mm 4 m/s 749 mmHg 62%
    13:00 +28°C° 0.1 mm 4 m/s 748 mmHg 61%
    14:00 +28°C° 0.1 mm 4 m/s 748 mmHg 60%
    15:00 +28°C° 0.3 mm 4 m/s 748 mmHg 63%
    16:00 +27°C° 0.3 mm 3 m/s 748 mmHg 66%
    17:00 +27°C° 0.3 mm 3 m/s 748 mmHg 70%
    18:00 +26°C° 0.1 mm 3 m/s 748 mmHg 75%
    19:00 +24°C° 0.1 mm 3 m/s 748 mmHg 80%
    20:00 +22°C° 0.1 mm 3 m/s 748 mmHg 86%
    21:00 +21°C° 0.1 mm 3 m/s 748 mmHg 88%
    22:00 +21°C° 0.1 mm 3 m/s 748 mmHg 89%
    23:00 +20°C° 0.1 mm 3 m/s 748 mmHg 91%

    Depois de amanhã, 21 Junho, Sexta-feira

    Tempo Temperatura Precipitação Vento Pressão Humidade
    00:00 +20°C° 0.1 mm 3 m/s 748 mmHg 92%
    01:00 +20°C° 0.1 mm 3 m/s 748 mmHg 93%
    02:00 +19°C° 0.1 mm 3 m/s 748 mmHg 94%
    03:00 +19°C° 0.2 mm 3 m/s 748 mmHg 94%
    04:00 +19°C° 0.2 mm 3 m/s 748 mmHg 93%
    05:00 +19°C° 0.2 mm 3 m/s 748 mmHg 93%
    06:00 +21°C° 0 mm 4 m/s 748 mmHg 88%
    07:00 +22°C° 0 mm 4 m/s 748 mmHg 84%
    08:00 +23°C° 0 mm 4 m/s 749 mmHg 80%
    09:00 +26°C° 0 mm 4 m/s 748 mmHg 74%
    10:00 +27°C° 0 mm 5 m/s 748 mmHg 68%
    11:00 +28°C° 0 mm 5 m/s 748 mmHg 62%
    12:00 +29°C° 0.1 mm 5 m/s 748 mmHg 61%
    13:00 +29°C° 0.1 mm 5 m/s 748 mmHg 60%
    14:00 +30°C° 0.1 mm 5 m/s 748 mmHg 59%
    15:00 +30°C° 0.3 mm 4 m/s 748 mmHg 62%
    16:00 +29°C° 0.3 mm 4 m/s 747 mmHg 66%
    17:00 +29°C° 0.3 mm 3 m/s 747 mmHg 69%
    18:00 +28°C° 0.6 mm 3 m/s 747 mmHg 74%
    19:00 +26°C° 0.6 mm 3 m/s 747 mmHg 79%
    20:00 +25°C° 0.6 mm 3 m/s 747 mmHg 84%
    21:00 +24°C° 0 mm 3 m/s 747 mmHg 86%
    22:00 +22°C° 0 mm 3 m/s 748 mmHg 88%
    23:00 +22°C° 0 mm 3 m/s 748 mmHg 90%

    22 Junho, Sábado

    Tempo Temperatura Precipitação Vento Pressão Humidade
    00:00 +21°C° 0 mm 3 m/s 748 mmHg 91%
    01:00 +21°C° 0 mm 3 m/s 748 mmHg 92%
    02:00 +20°C° 0 mm 3 m/s 748 mmHg 93%
    03:00 +20°C° 0.1 mm 3 m/s 748 mmHg 93%
    04:00 +20°C° 0.1 mm 3 m/s 748 mmHg 93%
    05:00 +20°C° 0.1 mm 3 m/s 748 mmHg 93%
    06:00 +23°C° 0.4 mm 2 m/s 748 mmHg 90%
    07:00 +24°C° 0.4 mm 2 m/s 749 mmHg 88%
    08:00 +25°C° 0.4 mm 2 m/s 749 mmHg 85%
    09:00 +26°C° 2 mm 2 m/s 749 mmHg 81%
    10:00 +27°C° 2 mm 2 m/s 749 mmHg 76%
    11:00 +28°C° 2 mm 3 m/s 749 mmHg 72%
    12:00 +28°C° 1.3 mm 2 m/s 749 mmHg 72%
    13:00 +27°C° 1.3 mm 2 m/s 749 mmHg 72%
    14:00 +27°C° 1.3 mm 2 m/s 749 mmHg 72%
    15:00 +27°C° 0.3 mm 2 m/s 749 mmHg 75%
    16:00 +27°C° 0.3 mm 2 m/s 749 mmHg 77%
    17:00 +26°C° 0.3 mm 3 m/s 749 mmHg 80%
    18:00 +25°C° 0.3 mm 2 m/s 749 mmHg 83%
    19:00 +24°C° 0.3 mm 2 m/s 749 mmHg 86%
    20:00 +23°C° 0.3 mm 2 m/s 749 mmHg 89%
    21:00 +23°C° 0.1 mm 2 m/s 749 mmHg 90%
    22:00 +21°C° 0.1 mm 2 m/s 750 mmHg 91%
    23:00 +20°C° 0.1 mm 2 m/s 750 mmHg 93%

    23 Junho, Domingo

    Tempo Temperatura Precipitação Vento Pressão Humidade
    00:00 +20°C° 0.4 mm 2 m/s 750 mmHg 94%
    01:00 +19°C° 0.4 mm 3 m/s 750 mmHg 94%
    02:00 +19°C° 0.4 mm 3 m/s 750 mmHg 95%
    03:00 +20°C° 0.2 mm 2 m/s 748 mmHg 91%
    04:00 +20°C° 0.2 mm 2 m/s 748 mmHg 92%
    05:00 +20°C° 0.2 mm 3 m/s 748 mmHg 92%
    06:00 +22°C° 0 mm 3 m/s 748 mmHg 88%
    07:00 +23°C° 0 mm 4 m/s 749 mmHg 83%
    08:00 +25°C° 0 mm 4 m/s 749 mmHg 79%
    09:00 +27°C° 0.2 mm 5 m/s 749 mmHg 72%
    10:00 +28°C° 0.2 mm 5 m/s 748 mmHg 66%
    11:00 +29°C° 0.2 mm 6 m/s 748 mmHg 59%
    12:00 +29°C° 0 mm 6 m/s 748 mmHg 60%
    13:00 +29°C° 0 mm 5 m/s 748 mmHg 60%
    14:00 +30°C° 0 mm 5 m/s 747 mmHg 60%
    15:00 +30°C° 0.2 mm 5 m/s 747 mmHg 62%
    16:00 +30°C° 0.2 mm 5 m/s 747 mmHg 63%
    17:00 +30°C° 0.2 mm 4 m/s 747 mmHg 65%
    18:00 +28°C° 0.1 mm 4 m/s 747 mmHg 69%
    19:00 +27°C° 0.1 mm 4 m/s 747 mmHg 73%
    20:00 +25°C° 0.1 mm 4 m/s 747 mmHg 77%
    21:00 +23°C° 0 mm 4 m/s 747 mmHg 79%
    22:00 +22°C° 0 mm 3 m/s 747 mmHg 81%
    23:00 +21°C° 0 mm 3 m/s 747 mmHg 82%

    24 Junho, Segunda-feira

    Tempo Temperatura Precipitação Vento Pressão Humidade
    00:00 +21°C° 0 mm 3 m/s 747 mmHg 85%
    01:00 +20°C° 0 mm 3 m/s 746 mmHg 87%
    02:00 +20°C° 0 mm 3 m/s 746 mmHg 89%
    03:00 +20°C° 0.1 mm 3 m/s 746 mmHg 89%
    04:00 +20°C° 0.1 mm 3 m/s 746 mmHg 90%
    05:00 +20°C° 0.1 mm 3 m/s 746 mmHg 91%
    06:00 +21°C° 0 mm 3 m/s 747 mmHg 86%
    07:00 +24°C° 0 mm 3 m/s 747 mmHg 81%
    08:00 +25°C° 0 mm 3 m/s 747 mmHg 76%
    09:00 +26°C° 0.2 mm 3 m/s 747 mmHg 72%
    10:00 +28°C° 0.2 mm 4 m/s 747 mmHg 67%
    11:00 +29°C° 0.2 mm 4 m/s 747 mmHg 63%
    12:00 +29°C° 0.2 mm 4 m/s 747 mmHg 60%
    13:00 +30°C° 0.2 mm 4 m/s 747 mmHg 57%
    14:00 +32°C° 0.2 mm 4 m/s 747 mmHg 55%
    15:00 +30°C° 0.2 mm 4 m/s 747 mmHg 58%
    16:00 +29°C° 0.2 mm 3 m/s 747 mmHg 61%
    17:00 +29°C° 0.2 mm 3 m/s 747 mmHg 65%
    18:00 +27°C° 0.8 mm 3 m/s 747 mmHg 72%
    19:00 +25°C° 0.8 mm 2 m/s 747 mmHg 79%
    20:00 +23°C° 0.8 mm 2 m/s 748 mmHg 86%
    21:00 +22°C° 0.2 mm 3 m/s 748 mmHg 90%
    22:00 +21°C° 0.2 mm 3 m/s 748 mmHg 93%
    23:00 +20°C° 0.2 mm 4 m/s 749 mmHg 96%
    Mostrar mais